Weather 🌤️

Recent data

Temperatures

Wind

Pressure

Humidity & Precipitation

Last data
obsTime qcStatus tempAvg heatindexAvg windspeedAvg windgustAvg winddirAvg pressureAvg humidityAvg precipRate precipTotal
2026-09-05 23:04:52 0 25.7 25.7 2 6.1 210 1002.88 53 0 0
2026-09-05 22:59:56 0 25.7 25.7 2.1 6.1 226 1003.05 53 0 0
2026-09-05 22:54:56 0 25.8 25.8 3 6.1 219 1003.05 52.8 0 0
2026-09-05 22:49:53 0 25.8 25.8 1.3 6.1 212 1003.05 52 0 0
2026-09-05 22:44:56 0 25.8 25.8 0.7 6.1 210 1002.88 52 0 0
2026-09-05 22:39:56 0 25.9 25.8 1.3 6.1 203 1002.88 52 0 0
2026-09-05 22:34:53 0 25.9 25.9 1.4 6.1 216 1002.88 52 0 0
2026-09-05 22:29:56 0 25.9 25.9 1.6 6.1 209 1002.88 52 0 0
2026-09-05 22:24:56 0 26.1 26.1 2.1 6.1 217 1003.05 52 0 0
2026-09-05 22:19:56 0 26.1 26.2 0.9 6.1 207 1002.88 52 0 0
2026-09-05 22:14:49 0 26.1 26.1 0.6 6.1 225 1002.71 52 0 0
2026-09-05 22:09:56 0 26.2 26.2 2.4 5.8 221 1002.88 52 0 0

Hourly data

Temperatures

Wind

Pressure

Humidity & Precipitation

Last data
obsTime qcStatus tempAvg heatindexAvg windspeedAvg windgustAvg winddirAvg pressureAvg humidityAvg precipRate precipTotal
2026-09-05 22:59:56 0 26 26 1.7 6 215 1003.05 52.1 0 0
2026-09-05 21:59:49 0 26.6 26.8 1.5 7.2 221 1002.54 50.6 0 0
2026-09-05 20:59:53 0 27.5 27.8 3.7 14 280 1002.03 48.8 0 0
2026-09-05 19:59:57 1 28.5 28.7 6.9 13.6 279 1001.53 46.6 0 0
2026-09-05 18:59:57 1 29.4 29.5 5.1 11.8 280 1001.53 45.1 0 0
2026-09-05 17:59:49 1 29.3 29.4 4.8 11.9 277 1001.36 45 0 0
2026-09-05 16:59:49 1 29.1 29.2 4.4 15.1 249 1001.69 45 0 0
2026-09-05 15:59:57 1 28.7 28.7 5 17.1 255 1002.03 44.4 0 0
2026-09-05 14:59:49 1 28.1 28.1 4.6 11.4 234 1002.37 45.1 0 0
2026-09-05 13:59:49 1 27.1 27.2 3.8 10.4 261 1002.71 46.5 0 0
2026-09-05 12:59:48 1 26.4 26.3 3.4 7.7 230 1003.05 47 0 0
2026-09-05 11:59:57 1 25.2 25 2.2 6.1 211 1003.22 48.3 0 0
2026-09-05 10:59:57 1 22.6 22.2 1.6 4.5 184 1003.05 51.2 0 0
2026-09-05 09:59:50 1 21 20.8 0.5 2.9 164 1002.71 52.7 0 0
2026-09-05 08:59:49 0 20.5 20.5 0.3 2.1 167 1002.2 52.1 0 0
2026-09-05 07:59:48 0 20.4 20.4 0.2 1.7 164 1001.69 51 0 0
2026-09-05 06:59:51 0 21.2 20.8 0.1 1.9 148 1001.36 48.9 0 0
2026-09-05 05:59:50 0 22.1 21.6 0 1.9 186 1001.36 46.4 0 0
2026-09-05 04:59:49 0 22.9 22.4 0.8 4.5 230 1000.68 44.4 0 0
2026-09-05 03:59:49 0 23.5 23 1.1 5.5 222 1000.34 43.2 0 0
2026-09-05 02:59:57 0 24.2 23.8 0.9 3.8 217 1000.85 42.3 0 0
2026-09-05 01:59:58 0 25.1 24.7 0.6 3.8 225 1000.85 40.8 0 0
2026-09-05 00:59:52 0 26 25.6 0.8 4.8 219 1000.17 38.7 0 0
2026-09-04 23:59:50 0 26.9 26.5 2.4 7.6 223 1000 36.7 0 0